Погода в Великом Селе

Россия / Новгородская область     57°41′30″N   31°44′23″E
темп.,
°C
ветер,
м/с
пор.,
м/с
влажн.,
%
обл.,
%
осадки,
мм/ч
давл.,
гПа
погр.,
м
21 апреля, ср
ср2100:00+6вюв3773100 0.0 1014483
03:00+3в239069 0.0 101299
06:00+4с2391100 0.1 1009598
09:00+4ссз2496100 0.4 1007713
12:00+4зсз2595100 0.4 1005636
15:00+5з269398 0.5 1004564
18:00+8юз2474100 0.1 1004871
21:00+4ю248926 0.2 100484
22 апреля, чт
чт2200:00+3ю3109082 0.0 1004201
03:00+5ю41091100 0.4 1004290
06:00+5ююз3997100 0.2 1005271
09:00+8юз477667 0.2 1006442
12:00+13юз464942 0.0 10071375
15:00+16юз4638100 0.0 10072501
18:00+15ююв274381 0.0 10062140
21:00+8з2496100 2.1 1007151
23 апреля, пт
пт2300:00+7юз3889100 2.4 1007632
03:00+5ю2691100 2.4 1008192
06:00+5ююз2790100 0.0 1007367
09:00+7ююз4767100 0.0 1008932
12:00+7ююз486698 0.6 10081466
15:00+9юз694674 1.0 10082330
18:00+8юз485049 0.0 10092006
21:00+3ююз267260 0.0 1010122
24 апреля, сб
сб2400:00+2ююз258419 0.0 101096
03:00+1юз249274 0.0 100979
06:00−1зюз24955 0.0 1009105
09:00+4юз24615 0.0 1008768
12:00+8юз3542100 0.0 10072020
15:00+8юз564790 0.1 10061759
18:00+6юз456138 0.3 10061140
21:00+2юз268743 0.5 1007182
25 апреля, вс
вс2500:00+1ююз279681 0.0 1006212
03:00+1ююз2396100 0.1 1005241
06:00+2зюз2699100 0.3 1005254
09:00+1з3698100 1.3 1006368
12:00+5зюз3568100 0.3 10061261
15:00+5зюз456878 0.8 10071249
18:00+5юз247399 0.4 1007767
21:00+1зюз269543 0.8 1007156